Location: Martz Observatory
(42.0083°N, 79.0667°W)
Time: 21:37:29
(UTC-04:00)

ATLAS 3B R/B - Pass Details

Date: 26 May 2018
Orbit: 1015 x 1180 km, 63.8° (Epoch: 18 August)

Event Time Altitude Azimuth Distance (km) Brightness Sun altitude
Rises 04:12:05 0° 328° (NNW) 3,818 5.8 -14.6°
Reaches altitude 10° 04:14:56 10° 335° (NNW) 2,843 5.2 -14.2°
Maximum altitude 04:21:11 41° 45° (NE) 1,446 4.1 -13.4°
Drops below altitude 10° 04:27:19 10° 114° (ESE) 2,793 5.2 -12.6°
Sets 04:30:04 0° 122° (ESE) 3,743 5.8 -12.2°
